Hayward, WI

7:01 AM CDT on May 20, 2018 (GMT -0500)
Sawyer County

Weather History for KHYR - May, 2014

Change the Weather History Date:

Wednesday, May 7, 2014

  Actual Average Record
Temperature  
Mean Temperature 57 °F -  
Max Temperature 66 °F 77 °F 84 °F (2018)
Min Temperature 48 °F 50 °F 28 °F (2017)
Degree Days  
Heating Degree Days 8    
Growing Degree Days 7 (Base 50)    
Moisture  
Dew Point 41 °F    
Average Humidity 60    
Maximum Humidity 93    
Minimum Humidity 41    
Precipitation  
Precipitation 0.13 in - - ()
Sea Level Pressure  
Sea Level Pressure 29.85 in    
Wind  
Wind Speed 9 mph (East)    
Max Wind Speed 16 mph    
Max Gust Speed 26 mph    
Visibility 10 miles    
Events Rain , Thunderstorm    
Averages and records for this station are not official NWS values.
T = Trace of Precipitation, MM = Missing Value Source: NWS Daily Summary

Daily Weather History Graph

Daily Weather History Graph

Search for Another Location

Airport or City:

Astronomy

May. 07, 2014 Rise Set
Actual Time 5:43 AM CDT 8:21 PM CDT
Civil Twilight 5:09 AM CDT 8:55 PM CDT
Nautical Twilight 4:27 AM CDT 9:38 PM CDT
Astronomical Twilight 3:37 AM CDT 10:28 PM CDT
Moon 1:04 PM CDT (5/7) 2:06 AM CDT (5/7)
Length of Visible Light 15h 45m
Length of Day
14h 37m
First Quarter, 55% of the Moon is Illuminated
May 7
First Quarter
May 14
Full
May 21
Last Quarter
May 28
New
Jun 5
First Quarter

Hourly Weather History & Observations

Time (CDT) Temp. Dew Point Humidity Pressure Visibility Wind Dir Wind Speed Gust Speed Precip Events Conditions
12:53 AM 52.0 °F 28.9 °F 41% 29.92 in 10.0 mi ESE 9.2 mph - N/A   Overcast
1:53 AM 51.1 °F 30.0 °F 44% 29.92 in 10.0 mi East 5.8 mph - N/A   Mostly Cloudy
2:53 AM 50.0 °F 28.9 °F 44% 29.91 in 10.0 mi East 8.1 mph - N/A   Overcast
3:53 AM 48.9 °F 28.9 °F 46% 29.92 in 10.0 mi NE 6.9 mph - N/A   Overcast
4:53 AM 48.9 °F 28.0 °F 44% 29.93 in 10.0 mi NNE 3.5 mph - N/A   Overcast
5:53 AM 48.0 °F 28.9 °F 48% 29.91 in 10.0 mi ENE 9.2 mph - N/A   Overcast
6:53 AM 48.0 °F 30.0 °F 50% 29.88 in 10.0 mi ESE 9.2 mph 18.4 mph N/A   Mostly Cloudy
7:53 AM 48.9 °F 35.1 °F 59% 29.89 in 10.0 mi ESE 12.7 mph 20.7 mph 0.01 in   Overcast
8:53 AM 51.1 °F 39.0 °F 63% 29.91 in 10.0 mi Variable 3.5 mph - 0.01 in   Mostly Cloudy
9:53 AM 55.9 °F 41.0 °F 57% 29.88 in 10.0 mi East 11.5 mph 19.6 mph N/A   Scattered Clouds
10:53 AM 57.0 °F 41.0 °F 55% 29.85 in 10.0 mi East 15.0 mph 25.3 mph N/A   Clear
12:53 PM 63.0 °F 43.0 °F 48% 29.84 in 10.0 mi ESE 16.1 mph 24.2 mph N/A   Scattered Clouds
1:53 PM 61.0 °F 43.0 °F 52% 29.84 in 10.0 mi East 10.4 mph - N/A   Clear
2:53 PM 64.0 °F 44.1 °F 48% 29.82 in 10.0 mi East 10.4 mph 19.6 mph N/A   Clear
3:53 PM 66.0 °F 45.0 °F 47% 29.79 in 10.0 mi East 16.1 mph 25.3 mph N/A   Clear
4:53 PM 66.0 °F 45.0 °F 47% 29.78 in 10.0 mi ESE 16.1 mph 24.2 mph N/A   Overcast
5:53 PM 64.9 °F 46.0 °F 50% 29.77 in 10.0 mi East 15.0 mph 20.7 mph N/A   Overcast
6:53 PM 62.1 °F 48.0 °F 60% 29.79 in 10.0 mi SE 15.0 mph 23.0 mph N/A   Overcast
7:24 PM 60.1 °F 48.0 °F 64% 29.76 in 10.0 mi ESE 11.5 mph 26.5 mph N/A   Overcast
7:53 PM 59.0 °F 48.0 °F 67% 29.79 in 10.0 mi ESE 10.4 mph - N/A   Overcast
8:53 PM 57.0 °F 46.9 °F 69% 29.80 in 10.0 mi ESE 10.4 mph 18.4 mph N/A   Overcast
9:53 PM 53.1 °F 45.0 °F 74% 29.81 in 10.0 mi ENE 10.4 mph - 0.00 in   Overcast
10:36 PM 52.0 °F 45.0 °F 77% 29.80 in 10.0 mi ENE 11.5 mph 18.4 mph N/A Thunderstorm Overcast
10:50 PM 51.8 °F 44.6 °F 76% 29.86 in 10.0 mi North - - 0.00 in Rain , Thunderstorm Light Thunderstorms and Rain
10:53 PM 52.0 °F 46.0 °F 80% 29.89 in 10.0 mi West 10.4 mph 21.9 mph 0.00 in Rain , Thunderstorm Light Thunderstorms and Rain
11:30 PM 50.0 °F 48.0 °F 93% 29.85 in 8.0 mi West 5.8 mph - 0.10 in Thunderstorm Overcast
11:44 PM 50.0 °F 48.0 °F 93% 29.85 in 5.0 mi Variable 3.5 mph - 0.11 in Rain , Thunderstorm Light Thunderstorms and Rain
11:53 PM 50.0 °F 48.0 °F 93% 29.86 in 6.0 mi NNE 4.6 mph - 0.11 in Rain , Thunderstorm Light Thunderstorms and Rain